| time (UTC) | temp F | wind direction | speed MPH | gust MPH | rain 1hr in | rain 24hr in | rain mn in | humidity % | barometer mb |
| 20260505225556 | 82 | 176 | 3.0 | 10.0 | 0.00 | 0.00 | 0.00 | 75 | 1006.2 |
| 20260505225053 | 82 | 183 | 5.0 | 10.0 | 0.00 | 0.00 | 0.00 | 73 | 1006.0 |
| 20260505224601 | 82 | 200 | 3.0 | 10.0 | 0.00 | 0.00 | 0.00 | 74 | 1006.0 |
| 20260505224055 | 82 | 207 | 6.0 | 10.0 | 0.00 | 0.00 | 0.00 | 73 | 1006.0 |
| 20260505223554 | 82 | 179 | 4.0 | 13.0 | 0.00 | 0.00 | 0.00 | 74 | 1006.0 |
| 20260505223108 | 82 | 175 | 5.0 | 13.0 | 0.00 | 0.00 | 0.00 | 73 | 1006.0 |
| 20260505222553 | 82 | 152 | 5.0 | 11.0 | 0.00 | 0.00 | 0.00 | 74 | 1006.0 |
| 20260505222053 | 82 | 184 | 4.0 | 11.0 | 0.00 | 0.00 | 0.00 | 75 | 1005.9 |
| 20260505221557 | 82 | 189 | 6.0 | 10.0 | 0.00 | 0.00 | 0.00 | 74 | 1006.0 |
| 20260505221054 | 82 | 128 | 4.0 | 10.0 | 0.00 | 0.00 | 0.00 | 74 | 1006.1 |
| 20260505220553 | 82 | 170 | 4.0 | 12.0 | 0.00 | 0.00 | 0.00 | 73 | 1006.2 |
| 20260505220059 | 82 | 128 | 5.0 | 13.0 | 0.00 | 0.00 | 0.00 | 73 | 1006.2 |
| 20260505215558 | 83 | 179 | 5.0 | 13.0 | 0.00 | 0.00 | 0.00 | 72 | 1006.1 |
| 20260505215053 | 83 | 180 | 5.0 | 11.0 | 0.00 | 0.00 | 0.00 | 71 | 1006.3 |
| 20260505214602 | 83 | 181 | 6.0 | 11.0 | 0.00 | 0.00 | 0.00 | 70 | 1006.5 |
| 20260505214053 | 84 | 205 | 3.0 | 14.0 | 0.00 | 0.00 | 0.00 | 72 | 1006.6 |
| 20260505213553 | 83 | 257 | 5.0 | 14.0 | 0.00 | 0.00 | 0.00 | 71 | 1006.6 |
| 20260505213054 | 83 | 209 | 6.0 | 13.0 | 0.00 | 0.00 | 0.00 | 71 | 1006.4 |
| 20260505212553 | 83 | 173 | 7.0 | 12.0 | 0.00 | 0.00 | 0.00 | 70 | 1006.5 |
| 20260505212053 | 83 | 205 | 5.0 | 12.0 | 0.00 | 0.00 | 0.00 | 70 | 1006.7 |
| 20260505211617 | 83 | 195 | 5.0 | 12.0 | 0.00 | 0.00 | 0.00 | 73 | 1007.0 |
| 20260505211054 | 83 | 173 | 6.0 | 14.0 | 0.00 | 0.00 | 0.00 | 70 | 1006.8 |
| 20260505210552 | 83 | 162 | 8.0 | 17.0 | 0.00 | 0.00 | 0.00 | 71 | 1006.8 |
| 20260505210056 | 82 | 191 | 6.0 | 18.0 | 0.00 | 0.00 | 0.00 | 72 | 1006.8 |
| 20260505205552 | 82 | 189 | 9.0 | 18.0 | 0.00 | 0.00 | 0.00 | 71 | 1006.8 |
| 20260505205052 | 82 | 229 | 7.0 | 14.0 | 0.00 | 0.00 | 0.00 | 72 | 1007.0 |
| 20260505204556 | 82 | 176 | 6.0 | 14.0 | 0.00 | 0.00 | 0.00 | 73 | 1007.0 |
| 20260505204057 | 82 | 165 | 7.0 | 13.0 | 0.00 | 0.00 | 0.00 | 72 | 1007.1 |
| 20260505203554 | 82 | 186 | 5.0 | 10.0 | 0.00 | 0.00 | 0.00 | 75 | 1007.0 |
| 20260505203121 | 82 | 241 | 6.0 | 14.0 | 0.00 | 0.00 | 0.00 | 74 | 1007.1 |
| 20260505202554 | 82 | 138 | 6.0 | 14.0 | 0.00 | 0.00 | 0.00 | 73 | 1007.3 |
| 20260505202054 | 82 | 214 | 5.0 | 13.0 | 0.00 | 0.00 | 0.00 | 74 | 1007.2 |
| 20260505201555 | 81 | 229 | 7.0 | 13.0 | 0.00 | 0.00 | 0.00 | 74 | 1007.3 |
| 20260505201053 | 81 | 205 | 6.0 | 13.0 | 0.00 | 0.00 | 0.00 | 74 | 1007.5 |
| 20260505200553 | 81 | 161 | 5.0 | 13.0 | 0.00 | 0.00 | 0.00 | 74 | 1007.6 |
| 20260505200055 | 81 | 225 | 7.0 | 14.0 | 0.00 | 0.00 | 0.00 | 73 | 1007.6 |
| 20260505195552 | 81 | 180 | 6.0 | 14.0 | 0.00 | 0.00 | 0.00 | 76 | 1007.6 |
| 20260505195052 | 81 | 176 | 7.0 | 14.0 | 0.00 | 0.00 | 0.00 | 75 | 1007.7 |
| 20260505194558 | 81 | 114 | 7.0 | 14.0 | 0.00 | 0.00 | 0.00 | 74 | 1007.8 |
| 20260505194053 | 81 | 177 | 5.0 | 10.0 | 0.00 | 0.00 | 0.00 | 75 | 1007.8 |
| 20260505193553 | 81 | 129 | 3.0 | 12.0 | 0.00 | 0.00 | 0.00 | 76 | 1007.9 |
| 20260505193059 | 80 | 207 | 6.0 | 12.0 | 0.00 | 0.00 | 0.00 | 76 | 1008.0 |
| 20260505192557 | 80 | 175 | 6.0 | 13.0 | 0.00 | 0.00 | 0.00 | 75 | 1007.8 |
| 20260505192054 | 80 | 210 | 6.0 | 13.0 | 0.00 | 0.00 | 0.00 | 75 | 1008.0 |
| 20260505191602 | 80 | 200 | 5.0 | 10.0 | 0.00 | 0.00 | 0.00 | 74 | 1008.1 |
| 20260505191053 | 81 | 192 | 4.0 | 11.0 | 0.00 | 0.00 | 0.00 | 76 | 1008.0 |
| 20260505190553 | 81 | 146 | 4.0 | 11.0 | 0.00 | 0.00 | 0.00 | 76 | 1008.2 |
| 20260505190056 | 80 | 205 | 5.0 | 10.0 | 0.00 | 0.00 | 0.00 | 75 | 1008.2 |
| 20260505185553 | 79 | 162 | 5.0 | 9.0 | 0.00 | 0.00 | 0.00 | 78 | 1008.2 |
| 20260505185053 | 79 | 228 | 3.0 | 10.0 | 0.00 | 0.00 | 0.00 | 77 | 1008.3 |
| 20260505184558 | 78 | 182 | 3.0 | 10.0 | 0.00 | 0.00 | 0.00 | 78 | 1008.3 |
| 20260505184054 | 78 | 182 | 3.0 | 10.0 | 0.00 | 0.00 | 0.00 | 77 | 1008.5 |
| 20260505183553 | 78 | 275 | 3.0 | 10.0 | 0.00 | 0.00 | 0.00 | 79 | 1008.6 |
| 20260505183054 | 78 | 170 | 5.0 | 10.0 | 0.00 | 0.00 | 0.00 | 78 | 1008.7 |
| 20260505182555 | 78 | 180 | 3.0 | 9.0 | 0.00 | 0.00 | 0.00 | 79 | 1008.9 |
| 20260505182054 | 78 | 186 | 5.0 | 9.0 | 0.00 | 0.00 | 0.00 | 78 | 1008.8 |
| 20260505181552 | 78 | 182 | 2.0 | 11.0 | 0.00 | 0.00 | 0.00 | 79 | 1008.9 |
| 20260505181052 | 77 | 165 | 5.0 | 12.0 | 0.00 | 0.00 | 0.00 | 81 | 1008.9 |
| 20260505180553 | 77 | 180 | 5.0 | 12.0 | 0.00 | 0.00 | 0.00 | 79 | 1009.0 |
| 20260505180057 | 77 | 191 | 2.0 | 12.0 | 0.00 | 0.00 | 0.00 | 80 | 1009.0 |
| 20260505175553 | 77 | 208 | 4.0 | 10.0 | 0.00 | 0.00 | 0.00 | 79 | 1009.0 |
| 20260505175055 | 77 | 172 | 4.0 | 11.0 | 0.00 | 0.00 | 0.00 | 80 | 1009.1 |
| 20260505174556 | 77 | 173 | 5.0 | 11.0 | 0.00 | 0.00 | 0.00 | 80 | 1009.1 |
| 20260505174053 | 77 | 184 | 5.0 | 11.0 | 0.00 | 0.00 | 0.00 | 81 | 1009.1 |
| 20260505173552 | 76 | 160 | 5.0 | 12.0 | 0.00 | 0.00 | 0.00 | 81 | 1009.1 |
| 20260505173056 | 76 | 165 | 4.0 | 12.0 | 0.00 | 0.00 | 0.00 | 83 | 1009.1 |
| 20260505172556 | 75 | 168 | 5.0 | 9.0 | 0.00 | 0.00 | 0.00 | 82 | 1009.2 |
| 20260505172052 | 75 | 180 | 4.0 | 8.0 | 0.00 | 0.00 | 0.00 | 82 | 1009.3 |
| 20260505171558 | 75 | 167 | 4.0 | 9.0 | 0.00 | 0.00 | 0.00 | 83 | 1009.1 |
| 20260505171053 | 75 | 177 | 5.0 | 11.0 | 0.00 | 0.00 | 0.00 | 83 | 1009.2 |
| 20260505170553 | 75 | 205 | 4.0 | 11.0 | 0.00 | 0.00 | 0.00 | 83 | 1009.3 |
| 20260505170055 | 74 | 188 | 5.0 | 10.0 | 0.00 | 0.00 | 0.00 | 83 | 1009.3 |
| 20260505165552 | 74 | 172 | 5.0 | 12.0 | 0.00 | 0.00 | 0.00 | 84 | 1009.3 |
| 20260505165052 | 74 | 205 | 5.0 | 12.0 | 0.00 | 0.00 | 0.00 | 84 | 1009.3 |
| 20260505164556 | 74 | 168 | 4.0 | 9.0 | 0.00 | 0.00 | 0.00 | 85 | 1009.4 |
| 20260505164055 | 74 | 211 | 4.0 | 9.0 | 0.00 | 0.00 | 0.00 | 85 | 1009.3 |
| 20260505163554 | 74 | 167 | 3.0 | 9.0 | 0.00 | 0.00 | 0.00 | 86 | 1009.3 |
| 20260505163052 | 73 | 213 | 3.0 | 12.0 | 0.00 | 0.00 | 0.00 | 86 | 1009.4 |
| 20260505162553 | 73 | 211 | 4.0 | 12.0 | 0.00 | 0.00 | 0.00 | 85 | 1009.4 |
| 20260505162053 | 73 | 200 | 4.0 | 12.0 | 0.00 | 0.00 | 0.00 | 86 | 1009.2 |
| 20260505161555 | 73 | 157 | 3.0 | 10.0 | 0.00 | 0.00 | 0.00 | 86 | 1009.3 |
| 20260505161053 | 73 | 221 | 4.0 | 10.0 | 0.00 | 0.00 | 0.00 | 86 | 1009.3 |
| 20260505160552 | 73 | 360 | 3.0 | 10.0 | 0.00 | 0.00 | 0.00 | 86 | 1009.1 |
| 20260505153057 | 72 | 360 | 4.0 | 10.0 | 0.00 | 0.00 | 0.00 | 87 | 1009.4 |
| 20260505152556 | 72 | 183 | 3.0 | 10.0 | 0.00 | 0.00 | 0.00 | 87 | 1009.4 |
| 20260505152053 | 72 | 360 | 3.0 | 8.0 | 0.00 | 0.00 | 0.00 | 87 | 1009.3 |
| 20260505151553 | 72 | 219 | 2.0 | 12.0 | 0.00 | 0.00 | 0.00 | 87 | 1009.3 |
| 20260505151053 | 72 | 187 | 5.0 | 14.0 | 0.00 | 0.00 | 0.00 | 87 | 1009.3 |
| 20260505150553 | 72 | 218 | 5.0 | 14.0 | 0.00 | 0.00 | 0.00 | 87 | 1009.3 |
| 20260505140553 | 71 | 173 | 4.0 | 10.0 | 0.00 | 0.00 | 0.00 | 88 | 1008.8 |
| 20260505140123 | 71 | 174 | 3.0 | 14.0 | 0.00 | 0.00 | 0.00 | 88 | 1008.7 |
| 20260505124554 | 70 | 198 | 5.0 | 11.0 | 0.00 | 0.00 | 0.00 | 88 | 1008.1 |
| 20260505124053 | 70 | 155 | 5.0 | 11.0 | 0.00 | 0.00 | 0.00 | 88 | 1008.0 |
| 20260505123552 | 70 | 171 | 4.0 | 12.0 | 0.00 | 0.00 | 0.00 | 88 | 1007.9 |
| 20260505123059 | 70 | 209 | 4.0 | 12.0 | 0.00 | 0.00 | 0.00 | 88 | 1007.8 |
| 20260505122552 | 70 | 162 | 4.0 | 10.0 | 0.00 | 0.00 | 0.00 | 88 | 1007.7 |
| 20260505122052 | 70 | 153 | 4.0 | 15.0 | 0.00 | 0.00 | 0.00 | 88 | 1007.7 |
| 20260505121552 | 70 | 192 | 7.0 | 15.0 | 0.00 | 0.00 | 0.00 | 88 | 1007.5 |
| 20260505121053 | 70 | 209 | 5.0 | 12.0 | 0.00 | 0.00 | 0.00 | 88 | 1007.5 |
| 20260505120552 | 70 | 214 | 4.0 | 12.0 | 0.00 | 0.00 | 0.00 | 88 | 1007.4 |
| 20260505120112 | 70 | 171 | 5.0 | 12.0 | 0.00 | 0.00 | 0.00 | 88 | 1007.3 |
| 20260505115552 | 70 | 243 | 5.0 | 14.0 | 0.00 | 0.00 | 0.00 | 88 | 1007.2 |
| 20260505115053 | 70 | 169 | 7.0 | 14.0 | 0.00 | 0.00 | 0.00 | 87 | 1007.2 |
| 20260505114558 | 70 | 187 | 5.0 | 11.0 | 0.00 | 0.00 | 0.00 | 87 | 1007.3 |
| 20260505114054 | 70 | 181 | 4.0 | 14.0 | 0.00 | 0.00 | 0.00 | 87 | 1007.3 |
| 20260505113557 | 70 | 241 | 4.0 | 14.0 | 0.00 | 0.00 | 0.00 | 87 | 1007.3 |
| 20260505113105 | 70 | 190 | 7.0 | 14.0 | 0.00 | 0.00 | 0.00 | 87 | 1007.4 |
| 20260505112552 | 70 | 167 | 4.0 | 10.0 | 0.00 | 0.00 | 0.00 | 87 | 1007.4 |
| 20260505112052 | 70 | 226 | 6.0 | 11.0 | 0.00 | 0.00 | 0.00 | 87 | 1007.1 |
| 20260505111605 | 70 | 207 | 5.0 | 14.0 | 0.00 | 0.00 | 0.00 | 87 | 1007.1 |
| 20260505111052 | 70 | 168 | 7.0 | 14.0 | 0.00 | 0.00 | 0.00 | 87 | 1007.2 |
| 20260505110553 | 70 | 243 | 4.0 | 11.0 | 0.00 | 0.00 | 0.00 | 87 | 1007.3 |
| 20260505102052 | 70 | 210 | 6.0 | 14.0 | 0.00 | 0.00 | 0.00 | 86 | 1007.5 |
| 20260505101558 | 70 | 187 | 5.0 | 12.0 | 0.00 | 0.00 | 0.00 | 86 | 1007.7 |
| 20260505101052 | 70 | 244 | 6.0 | 12.0 | 0.00 | 0.00 | 0.00 | 86 | 1007.7 |
| 20260505100555 | 70 | 218 | 5.0 | 15.0 | 0.00 | 0.00 | 0.00 | 86 | 1007.6 |
| 20260505100055 | 70 | 175 | 5.0 | 15.0 | 0.00 | 0.00 | 0.00 | 86 | 1007.9 |
| 20260505095553 | 70 | 204 | 4.0 | 10.0 | 0.00 | 0.00 | 0.00 | 86 | 1007.7 |
| 20260505095055 | 70 | 152 | 4.0 | 9.0 | 0.00 | 0.00 | 0.00 | 86 | 1007.6 |
| 20260505094602 | 70 | 177 | 5.0 | 9.0 | 0.00 | 0.00 | 0.00 | 85 | 1007.5 |
| 20260505094053 | 70 | 194 | 5.0 | 13.0 | 0.00 | 0.00 | 0.00 | 85 | 1007.9 |
| 20260505093557 | 70 | 194 | 6.0 | 13.0 | 0.00 | 0.00 | 0.00 | 85 | 1007.8 |
| 20260505093059 | 70 | 168 | 5.0 | 16.0 | 0.00 | 0.00 | 0.00 | 85 | 1007.9 |
| 20260505092554 | 70 | 197 | 5.0 | 16.0 | 0.00 | 0.00 | 0.00 | 85 | 1007.8 |
| 20260505092053 | 70 | 180 | 5.0 | 12.0 | 0.00 | 0.00 | 0.00 | 85 | 1007.7 |
| 20260505091611 | 70 | 217 | 5.0 | 12.0 | 0.00 | 0.00 | 0.00 | 85 | 1007.9 |
| 20260505091055 | 70 | 171 | 5.0 | 12.0 | 0.00 | 0.00 | 0.00 | 86 | 1008.0 |
| 20260505090553 | 70 | 198 | 7.0 | 12.0 | 0.00 | 0.00 | 0.00 | 86 | 1008.1 |
| 20260505085553 | 70 | 182 | 6.0 | 14.0 | 0.00 | 0.00 | 0.00 | 86 | 1008.0 |
| 20260505085053 | 70 | 169 | 6.0 | 14.0 | 0.00 | 0.00 | 0.00 | 86 | 1008.1 |
| 20260505084604 | 70 | 154 | 6.0 | 13.0 | 0.00 | 0.00 | 0.00 | 86 | 1008.2 |
| 20260505084053 | 70 | 172 | 4.0 | 11.0 | 0.00 | 0.00 | 0.00 | 86 | 1008.0 |
| 20260505083554 | 70 | 201 | 6.0 | 14.0 | 0.00 | 0.00 | 0.00 | 86 | 1008.0 |
| 20260505083105 | 70 | 197 | 6.0 | 14.0 | 0.00 | 0.00 | 0.00 | 86 | 1008.0 |
| 20260505082552 | 70 | 194 | 7.0 | 13.0 | 0.00 | 0.00 | 0.00 | 86 | 1008.4 |
| 20260505082052 | 70 | 177 | 7.0 | 13.0 | 0.00 | 0.00 | 0.00 | 86 | 1008.3 |
| 20260505081554 | 70 | 165 | 3.0 | 7.0 | 0.00 | 0.00 | 0.00 | 86 | 1008.3 |
| 20260505081052 | 70 | 198 | 3.0 | 12.0 | 0.00 | 0.00 | 0.00 | 86 | 1008.3 |
| 20260505080552 | 70 | 181 | 4.0 | 12.0 | 0.00 | 0.00 | 0.00 | 85 | 1008.3 |
| 20260505080054 | 70 | 209 | 6.0 | 16.0 | 0.00 | 0.00 | 0.00 | 85 | 1008.3 |
| 20260505075552 | 70 | 188 | 6.0 | 16.0 | 0.00 | 0.00 | 0.00 | 85 | 1008.2 |
| 20260505075052 | 70 | 173 | 7.0 | 13.0 | 0.00 | 0.00 | 0.00 | 85 | 1008.4 |
| 20260505074559 | 70 | 193 | 5.0 | 15.0 | 0.00 | 0.00 | 0.00 | 85 | 1008.5 |
| 20260505074052 | 70 | 233 | 6.0 | 15.0 | 0.00 | 0.00 | 0.00 | 85 | 1008.7 |
| 20260505073552 | 70 | 180 | 6.0 | 13.0 | 0.00 | 0.00 | 0.00 | 85 | 1008.6 |
| 20260505073057 | 70 | 195 | 7.0 | 13.0 | 0.00 | 0.00 | 0.00 | 85 | 1008.6 |
| 20260505072555 | 70 | 230 | 7.0 | 13.0 | 0.00 | 0.00 | 0.00 | 85 | 1008.8 |
| 20260505072054 | 70 | 201 | 6.0 | 18.0 | 0.00 | 0.00 | 0.00 | 85 | 1009.0 |
| 20260505071600 | 70 | 189 | 6.0 | 18.0 | 0.00 | 0.00 | 0.00 | 85 | 1009.0 |
| 20260505071052 | 70 | 175 | 5.0 | 13.0 | 0.00 | 0.00 | 0.00 | 85 | 1009.1 |
| 20260505070553 | 70 | 178 | 6.0 | 15.0 | 0.00 | 0.00 | 0.00 | 85 | 1009.1 |
| 20260505070104 | 70 | 134 | 6.0 | 15.0 | 0.00 | 0.00 | 0.00 | 85 | 1009.1 |
| 20260505065553 | 70 | 207 | 6.0 | 15.0 | 0.00 | 0.00 | 0.00 | 85 | 1009.2 |
| 20260505065052 | 70 | 181 | 5.0 | 12.0 | 0.00 | 0.00 | 0.00 | 85 | 1009.1 |
| 20260505064557 | 70 | 221 | 5.0 | 12.0 | 0.00 | 0.00 | 0.00 | 85 | 1009.1 |
| 20260505064053 | 70 | 130 | 6.0 | 12.0 | 0.00 | 0.00 | 0.00 | 85 | 1009.3 |
| 20260505063553 | 70 | 242 | 7.0 | 12.0 | 0.00 | 0.00 | 0.00 | 85 | 1009.2 |
| 20260505063054 | 70 | 154 | 4.0 | 11.0 | 0.00 | 0.00 | 0.00 | 85 | 1009.4 |
| 20260505062555 | 70 | 175 | 6.0 | 13.0 | 0.00 | 0.00 | 0.00 | 85 | 1009.4 |
| 20260505062056 | 70 | 182 | 5.0 | 14.0 | 0.00 | 0.00 | 0.00 | 84 | 1009.5 |
| 20260505061613 | 71 | 192 | 8.0 | 17.0 | 0.00 | 0.00 | 0.00 | 84 | 1009.6 |
| 20260505061053 | 71 | 173 | 7.0 | 17.0 | 0.00 | 0.00 | 0.00 | 84 | 1009.6 |
| 20260505060553 | 71 | 206 | 8.0 | 17.0 | 0.00 | 0.00 | 0.00 | 84 | 1009.6 |
| 20260505060059 | 71 | 167 | 6.0 | 14.0 | 0.00 | 0.00 | 0.00 | 84 | 1009.6 |
| 20260505055553 | 70 | 236 | 4.0 | 13.0 | 0.00 | 0.00 | 0.00 | 85 | 1009.5 |
| 20260505055053 | 71 | 151 | 5.0 | 13.0 | 0.00 | 0.00 | 0.00 | 85 | 1009.6 |
| 20260505054557 | 71 | 172 | 5.0 | 13.0 | 0.00 | 0.00 | 0.00 | 84 | 1009.6 |
| 20260505054053 | 71 | 179 | 5.0 | 10.0 | 0.00 | 0.00 | 0.00 | 84 | 1009.6 |
| 20260505053554 | 71 | 224 | 5.0 | 12.0 | 0.00 | 0.00 | 0.00 | 84 | 1009.5 |
| 20260505053059 | 71 | 226 | 6.0 | 12.0 | 0.00 | 0.00 | 0.00 | 84 | 1009.4 |
| 20260505052553 | 71 | 182 | 6.0 | 13.0 | 0.00 | 0.00 | 0.00 | 84 | 1009.5 |
| 20260505052053 | 71 | 211 | 7.0 | 15.0 | 0.00 | 0.00 | 0.00 | 84 | 1009.5 |
| 20260505051555 | 71 | 165 | 6.0 | 15.0 | 0.00 | 0.00 | 0.00 | 85 | 1009.6 |
| 20260505051052 | 71 | 213 | 6.0 | 12.0 | 0.00 | 0.00 | 0.00 | 85 | 1009.5 |
| 20260505050554 | 71 | 186 | 7.0 | 15.0 | 0.00 | 0.00 | 0.00 | 85 | 1009.5 |
| 20260505041601 | 72 | 360 | 4.0 | 12.0 | 0.00 | 0.00 | 0.00 | 82 | 1009.5 |
| 20260505041054 | 72 | 360 | 4.0 | 14.0 | 0.00 | 0.00 | 0.00 | 81 | 1009.3 |
| 20260505040554 | 72 | 214 | 6.0 | 14.0 | 0.00 | 0.00 | 0.00 | 81 | 1009.4 |
| 20260505035555 | 72 | 360 | 5.0 | 11.0 | 0.00 | 0.00 | 0.00 | 81 | 1009.4 |
| 20260505035057 | 73 | 224 | 6.0 | 11.0 | 0.00 | 0.00 | 0.00 | 80 | 1009.5 |
| 20260505034559 | 73 | 163 | 6.0 | 10.0 | 0.00 | 0.00 | 0.00 | 80 | 1009.4 |
| 20260505034051 | 73 | 207 | 6.0 | 11.0 | 0.00 | 0.00 | 0.00 | 80 | 1009.4 |
| 20260505033554 | 73 | 193 | 5.0 | 12.0 | 0.00 | 0.00 | 0.00 | 80 | 1009.4 |
| 20260505033102 | 73 | 187 | 6.0 | 12.0 | 0.00 | 0.00 | 0.00 | 80 | 1009.4 |
| 20260505032552 | 73 | 360 | 4.0 | 12.0 | 0.00 | 0.00 | 0.00 | 79 | 1009.4 |
| 20260505032056 | 73 | 161 | 3.0 | 12.0 | 0.00 | 0.00 | 0.00 | 79 | 1009.3 |
| 20260505031557 | 73 | 169 | 6.0 | 14.0 | 0.00 | 0.00 | 0.00 | 78 | 1009.3 |
| 20260505031053 | 74 | 221 | 7.0 | 14.0 | 0.00 | 0.00 | 0.00 | 78 | 1009.3 |
| 20260505030555 | 74 | 204 | 6.0 | 13.0 | 0.00 | 0.00 | 0.00 | 78 | 1009.4 |
| 20260505030104 | 74 | 216 | 5.0 | 12.0 | 0.00 | 0.00 | 0.00 | 78 | 1009.5 |
| 20260505025551 | 74 | 218 | 6.0 | 12.0 | 0.00 | 0.00 | 0.00 | 77 | 1009.5 |
| 20260505025051 | 74 | 184 | 4.0 | 11.0 | 0.00 | 0.00 | 0.00 | 77 | 1009.5 |
| 20260505024553 | 74 | 231 | 6.0 | 11.0 | 0.00 | 0.00 | 0.00 | 77 | 1009.3 |
| 20260505024051 | 74 | 197 | 5.0 | 9.0 | 0.00 | 0.00 | 0.00 | 77 | 1009.3 |
| 20260505023551 | 74 | 179 | 4.0 | 10.0 | 0.00 | 0.00 | 0.00 | 76 | 1009.4 |
| 20260505023054 | 74 | 196 | 4.0 | 10.0 | 0.00 | 0.00 | 0.00 | 76 | 1009.3 |
| 20260505022551 | 75 | 185 | 4.0 | 10.0 | 0.00 | 0.00 | 0.00 | 75 | 1009.2 |
| 20260505022057 | 75 | 215 | 4.0 | 10.0 | 0.00 | 0.00 | 0.00 | 75 | 1009.4 |
| 20260505021553 | 75 | 175 | 5.0 | 11.0 | 0.00 | 0.00 | 0.00 | 74 | 1009.3 |
| 20260505021055 | 75 | 179 | 6.0 | 11.0 | 0.00 | 0.00 | 0.00 | 74 | 1009.1 |
| 20260505020554 | 75 | 171 | 5.0 | 11.0 | 0.00 | 0.00 | 0.00 | 73 | 1009.2 |
| 20260505020055 | 75 | 229 | 4.0 | 12.0 | 0.00 | 0.00 | 0.00 | 73 | 1009.2 |
| 20260505015551 | 75 | 188 | 5.0 | 12.0 | 0.00 | 0.00 | 0.00 | 73 | 1009.2 |
| 20260505015051 | 75 | 199 | 4.0 | 10.0 | 0.00 | 0.00 | 0.00 | 72 | 1009.3 |
| 20260505014557 | 75 | 176 | 4.0 | 10.0 | 0.00 | 0.00 | 0.00 | 72 | 1009.2 |
| 20260505014052 | 75 | 200 | 3.0 | 9.0 | 0.00 | 0.00 | 0.00 | 72 | 1009.3 |
| 20260505013551 | 75 | 209 | 4.0 | 9.0 | 0.00 | 0.00 | 0.00 | 71 | 1009.2 |
| 20260505013055 | 75 | 161 | 4.0 | 12.0 | 0.00 | 0.00 | 0.00 | 71 | 1009.2 |
| 20260505012553 | 76 | 198 | 4.0 | 12.0 | 0.00 | 0.00 | 0.00 | 70 | 1009.1 |
| 20260505012051 | 76 | 171 | 4.0 | 12.0 | 0.00 | 0.00 | 0.00 | 70 | 1009.2 |
| 20260505011600 | 76 | 211 | 5.0 | 12.0 | 0.00 | 0.00 | 0.00 | 70 | 1009.1 |
| 20260505011054 | 76 | 217 | 4.0 | 9.0 | 0.00 | 0.00 | 0.00 | 69 | 1009.1 |
| 20260505010553 | 76 | 186 | 3.0 | 9.0 | 0.00 | 0.00 | 0.00 | 69 | 1009.0 |
| 20260505010104 | 76 | 174 | 4.0 | 8.0 | 0.00 | 0.00 | 0.00 | 68 | 1009.0 |
| 20260505005551 | 77 | 192 | 3.0 | 14.0 | 0.00 | 0.00 | 0.00 | 67 | 1009.1 |
| 20260505005054 | 77 | 172 | 4.0 | 14.0 | 0.00 | 0.00 | 0.00 | 66 | 1009.0 |
| 20260505004601 | 77 | 177 | 6.0 | 11.0 | 0.00 | 0.00 | 0.00 | 65 | 1009.0 |
| 20260505004055 | 78 | 175 | 4.0 | 13.0 | 0.00 | 0.00 | 0.00 | 65 | 1009.0 |
| 20260505003553 | 78 | 171 | 5.0 | 13.0 | 0.00 | 0.00 | 0.00 | 64 | 1009.0 |
| 20260505003054 | 78 | 203 | 6.0 | 14.0 | 0.00 | 0.00 | 0.00 | 64 | 1009.0 |
| 20260505002553 | 78 | 184 | 6.0 | 14.0 | 0.00 | 0.00 | 0.00 | 64 | 1008.9 |
| 20260505002052 | 78 | 211 | 5.0 | 10.0 | 0.00 | 0.00 | 0.00 | 64 | 1008.9 |
| 20260505001555 | 78 | 194 | 4.0 | 13.0 | 0.00 | 0.00 | 0.00 | 64 | 1008.7 |
| 20260505001051 | 78 | 180 | 5.0 | 15.0 | 0.00 | 0.00 | 0.00 | 63 | 1008.6 |
| 20260505000551 | 79 | 190 | 8.0 | 23.0 | 0.00 | 0.00 | 0.00 | 62 | 1008.6 |
| 20260505000106 | 79 | 175 | 7.0 | 23.0 | 0.00 | 0.00 | 0.00 | 62 | 1008.9 |
| 20260504235554 | 79 | 188 | 6.0 | 14.0 | 0.00 | 0.00 | 0.00 | 62 | 1008.9 |
| 20260504235053 | 79 | 215 | 6.0 | 15.0 | 0.00 | 0.00 | 0.00 | 62 | 1008.9 |
| 20260504234604 | 79 | 208 | 7.0 | 15.0 | 0.00 | 0.00 | 0.00 | 62 | 1009.0 |
| 20260504234057 | 80 | 186 | 5.0 | 13.0 | 0.00 | 0.00 | 0.00 | 62 | 1009.1 |
| 20260504233551 | 79 | 184 | 6.0 | 13.0 | 0.00 | 0.00 | 0.00 | 62 | 1009.1 |
| 20260504233058 | 79 | 200 | 5.0 | 12.0 | 0.00 | 0.00 | 0.00 | 63 | 1009.2 |
| 20260504232552 | 79 | 167 | 6.0 | 12.0 | 0.00 | 0.00 | 0.00 | 64 | 1009.4 |
| 20260504232051 | 79 | 196 | 6.0 | 13.0 | 0.00 | 0.00 | 0.00 | 63 | 1009.1 |
| 20260504231554 | 80 | 161 | 7.0 | 14.0 | 0.00 | 0.00 | 0.00 | 63 | 1009.3 |
| 20260504231051 | 79 | 214 | 6.0 | 15.0 | 0.00 | 0.00 | 0.00 | 63 | 1009.3 |
| 20260504230551 | 80 | 166 | 7.0 | 15.0 | 0.00 | 0.00 | 0.00 | 62 | 1009.4 |
| 20260504230055 | 80 | 174 | 7.0 | 14.0 | 0.00 | 0.00 | 0.00 | 62 | 1009.4 |